Trail des Echaliers (Bolland-Herve)
Trail des Echaliers (Bolland-Herve) 14/07/2017 - 20 km
Mise à jour le : 15/07/2017 à 09:51
Classement définitif, aucune correction possible
Place Nom Prénom Dossard Temps Vitesse Allure Place. Cat. Catégorie
1 MICHEL LUC 1006 1:26:27 13,88 4:19 1 Séniors
2 WIERTZ XAVIER 1038 1:26:28 13,88 4:19 2 Séniors
3 LAFOURTE JEROME 1010 1:27:51 13,66 4:23 3 Séniors
4 ORDONEZ MANUEL 1096 1:29:00 13,48 4:27 4 Séniors
5 JACQUINET ERIC 1008 1:31:54 13,06 4:35 5 Séniors
6 LOMBRE FRED 1027 1:33:11 12,88 4:39 1 Vétérans 1
7 HENDRICK JULIEN 1056 1:34:25 12,71 4:43 6 Séniors
8 BASTIN ROBERT 1081 1:34:37 12,68 4:43 2 Vétérans 1
9 JOSKIN DAMIEN 1029 1:34:53 12,65 4:44 7 Séniors
10 PALM GUILLAUME 1062 1:35:21 12,58 4:46 8 Séniors
11 EURARD AMAURY 1063 1:37:19 12,33 4:51 9 Séniors
12 LECLERCQ PIERRE 1135 1:38:40 12,16 4:56 10 Séniors
13 TEFNIN REMY 1136 1:38:43 12,16 4:56 11 Séniors
14 GERON DAVID 1111 1:39:08 12,10 4:57 3 Vétérans 1
15 PLOM CORENTIN 1089 1:39:23 12,07 4:58 12 Séniors
16 BOSARD STEPHANE 1026 1:40:34 11,93 5:01 13 Séniors
17 HUMBLET AURELIEN 1088 1:41:12 11,86 5:03 14 Séniors
18 DARIMONT CHRISTOPHER 1025 1:41:12 11,86 5:03 15 Séniors
19 DEWAEL YANNICK 1031 1:41:20 11,84 5:04 4 Vétérans 1
20 CABAY JEAN-MARC 1085 1:41:24 11,83 5:04 5 Vétérans 1
21 LEHANCE PASCAL 1007 1:41:40 11,80 5:05 6 Vétérans 1
22 FAUCONNIER JEAN-FRANÇOIS 1002 1:42:06 11,75 5:06 7 Vétérans 1
23 SERVAIS ADRIEN 1071 1:42:12 11,74 5:06 16 Séniors
24 JEWASINSKI MICHEL 1001 1:42:14 11,74 5:06 8 Vétérans 1
25 GROSJEAN ANTHONY 1098 1:42:46 11,68 5:08 17 Séniors
26 COLLIN LAURENT 1083 1:43:24 11,61 5:10 9 Vétérans 1
27 LOPEZ-NAVA DIDIER 1022 1:45:55 11,33 5:17 10 Vétérans 1
28 ROBERT RUDY 1070 1:46:03 11,32 5:18 1 Vétérans 2
29 LAOUREUX LAURENT 1073 1:46:24 11,28 5:19 11 Vétérans 1
30 AGUS PAOLO 1120 1:46:43 11,24 5:20 12 Vétérans 1
31 BRÉVER JEAN-FRANÇOIS 1004 1:46:51 11,23 5:20 13 Vétérans 1
32 PIERRON CATHERINE 1041 1:47:21 11,18 5:22 1 Dames
33 REGNIER DIDIER 1003 1:47:28 11,17 5:22 2 Vétérans 2
34 BONHOMME RUDY 1129 1:47:45 11,14 5:23 18 Séniors
35 STOLMAU CHRISTOPHER 1106 1:48:14 11,09 5:24 19 Séniors
36 GOMBOSO MARC 1113 1:48:37 11,05 5:25 1 Vétérans 3
37 ESTEBEZ ANDRE 1021 1:48:51 11,02 5:26 14 Vétérans 1
38 LEMAIRE CÉDRIC 1118 1:49:15 10,98 5:27 20 Séniors
39 MAGIS JEAN-BENOIT 1116 1:49:17 10,98 5:27 15 Vétérans 1
40 CREMER GILLES 1020 1:49:22 10,97 5:28 21 Séniors
41 D'AFFNAY JEAN-FRANÇOIS 1054 1:49:25 10,97 5:28 22 Séniors
42 GILET ARNAUD 1066 1:49:35 10,95 5:28 16 Vétérans 1
43 MASY YANNICK 1132 1:49:46 10,93 5:29 23 Séniors
44 RITROVATO SYLVAIN 1119 1:49:57 10,91 5:29 17 Vétérans 1
45 ROSILLON CAROLINE 1011 1:50:02 10,91 5:30 2 Dames
46 LEVAUX JOACHIM 1109 1:50:04 10,90 5:30 24 Séniors
47 RUBERT CHRISTOPHE 1049 1:50:09 10,89 5:30 18 Vétérans 1
48 SLUYSMANS MARTIN 1061 1:50:14 10,88 5:30 3 Vétérans 2
49 SONTAG THIERRY 1110 1:50:30 10,86 5:31 19 Vétérans 1
50 DOSSERAY VINCENT 1018 1:50:38 10,85 5:31 25 Séniors
51 CHIARINI JULIEN 1126 1:51:05 10,80 5:33 26 Séniors
52 LAMBRECHT JEAN FRANCOIS 1057 1:52:15 10,69 5:36 27 Séniors
53 DELVIGNE JEAN FRANCOIS 1086 1:52:29 10,67 5:37 20 Vétérans 1
54 LUCASSEN PHILIPPE 1052 1:52:36 10,66 5:37 21 Vétérans 1
55 MOUREAU ADRIEN 1044 1:53:07 10,61 5:39 28 Séniors
56 EWBANK GEOFFREY 1032 1:54:28 10,48 5:43 29 Séniors
57 KLEYNEN GEOFFREY 1145 1:54:52 10,45 5:44 30 Séniors
58 DELVIGNE COUGNET 1130 1:55:02 10,43 5:45 22 Vétérans 1
59 WATAR FRANCIS 1143 1:55:10 10,42 5:45 23 Vétérans 1
60 THIELEN ALAIN 1058 1:55:24 10,40 5:46 24 Vétérans 1
61 BEULEN BRUNO 1079 1:55:34 10,38 5:46 31 Séniors
62 LECOMTE PAULINE 1009 1:55:48 10,36 5:47 3 Dames
63 VIOLLE BENJAMIN 1039 1:56:13 10,32 5:48 32 Séniors
64 JENNES JEAN FRANCOIS 1094 1:56:16 10,32 5:48 33 Séniors
65 BIDOUL GIL 1069 1:56:18 10,32 5:48 34 Séniors
66 DENDAL DIDIER 1000 1:57:12 10,24 5:51 4 Vétérans 2
67 HUTSCHEMACKERS BERNARD 1142 1:57:21 10,22 5:52 25 Vétérans 1
68 DERECOGNE JULIEN 1017 1:57:38 10,20 5:52 35 Séniors
69 KERIS MONIQUE 1012 1:57:46 10,19 5:53 1 Ainées 2
70 SCHYNS ROMAIN 1019 1:57:51 10,18 5:53 36 Séniors
71 WAUCOMONT BENOÎT 1091 1:58:15 10,15 5:54 26 Vétérans 1
72 LELLERCQ JORDAN 1028 1:58:21 10,14 5:55 37 Séniors
73 EVRARD JOHAN 1064 1:58:46 10,10 5:56 38 Séniors
74 SCHNAKERS ARNAUD 1108 1:58:55 10,09 5:56 39 Séniors
75 SCHMETZ ROLAND 1121 1:58:58 10,09 5:56 27 Vétérans 1
76 KEIL YVES 1060 1:59:02 10,08 5:57 28 Vétérans 1
77 THONNARD MARIE HELENE 1050 1:59:04 10,08 5:57 2 Ainées 2
78 STEFFENS BENOIT 1042 1:59:10 10,07 5:57 29 Vétérans 1
79 HENRY EMMANUEL 1115 1:59:18 10,06 5:57 30 Vétérans 1
80 COUNET CHRISTOPHE 1101 1:59:32 10,04 5:58 40 Séniors
81 VAN DE WINKEL THOMAS 1030 2:00:43 9,94 6:02 41 Séniors
82 KERF PATRICK 1013 2:02:09 9,82 6:06 5 Vétérans 2
83 DE GRAAF ARNOLD 1144 2:03:24 9,72 6:10 6 Vétérans 2
84 KEYDENER JOSEPH 1053 2:03:32 9,71 6:10 42 Séniors
85 PEETERS THOMAS 1077 2:04:04 9,67 6:12 43 Séniors
86 NIBUS THOMAS 1078 2:04:06 9,67 6:12 44 Séniors
87 CLAES LAURENT 1034 2:04:07 9,67 6:12 31 Vétérans 1
88 WOLTECHE HERVE 1124 2:04:14 9,66 6:12 45 Séniors
89 DUMOULIN PHILIPPE 1065 2:04:35 9,63 6:13 7 Vétérans 2
90 HUBRICK NICOLAS 1043 2:04:36 9,63 6:13 32 Vétérans 1
91 HEUSSCHEN CHRISTINE 1016 2:04:42 9,62 6:14 3 Ainées 2
92 JOSSE NOEL 1015 2:04:44 9,62 6:14 2 Vétérans 3
93 DELHEUSY ARNAUD 1048 2:04:45 9,62 6:14 33 Vétérans 1
94 ETIENNE BERNARD 1114 2:04:49 9,61 6:14 8 Vétérans 2
95 FREYHAN MAXIM 1125 2:04:57 9,60 6:14 46 Séniors
96 PIEDBOEUF BERTRAND 1104 2:05:33 9,56 6:16 47 Séniors
97 LOUVIAUX CINDY 1133 2:05:36 9,55 6:16 1 Ainées 1
98 THONNARD SEVERINE 1127 2:05:40 9,55 6:17 4 Dames
99 ALDENHOVEN MELVIN 1131 2:05:42 9,55 6:17 48 Séniors
100 HALLEUX JEAN MARIE 1105 2:08:04 9,37 6:24 34 Vétérans 1
101 NYSSEN THOMAS 1051 2:09:05 9,30 6:27 49 Séniors
102 TROUDI KAMEL 1095 2:09:13 9,29 6:27 9 Vétérans 2
103 PIERRE FABIAN 1134 2:09:29 9,27 6:28 35 Vétérans 1
104 PLOEMMEN JANINE 1036 2:09:51 9,24 6:29 4 Ainées 2
105 WERY JULIE 1075 2:09:52 9,24 6:29 2 Ainées 1
106 CLERDAIN CHRISTINE 1076 2:09:55 9,24 6:29 3 Ainées 1
107 FRANSSEN JEAN-FRANCOIS 1067 2:10:18 9,21 6:30 36 Vétérans 1
108 HERMENS PHILIPPE 1059 2:10:20 9,21 6:31 50 Séniors
109 MONAMI SERGE 1068 2:10:50 9,17 6:32 10 Vétérans 2
110 LACROIX ASTRID 1037 2:10:55 9,17 6:32 5 Ainées 2
111 PETRIAUX MARC 1087 2:13:20 9,00 6:40 37 Vétérans 1
112 CASTELA DELPHINE 1072 2:13:58 8,96 6:41 5 Dames
113 DROPSY MICHEL 1040 2:14:13 8,94 6:42 3 Vétérans 3
114 FASSIN JEAN-FRANCOIS 1093 2:14:22 8,93 6:43 51 Séniors
115 CHARLIER ALEXANDRE 1139 2:14:28 8,92 6:43 52 Séniors
116 BIBERSZTEIN STEFAN 807 2:15:02 8,89 6:45 11 Vétérans 2
117 LENS ANNE SOPHIE 1047 2:15:02 8,89 6:45 4 Ainées 1
118 TIMMERMANN GHISLAIN 1045 2:15:35 8,85 6:46 12 Vétérans 2
119 CHEBIL RAMI 1141 2:15:38 8,85 6:46 53 Séniors
120 PIRLOT BERNARD 1090 2:18:06 8,69 6:54 54 Séniors
121 GEELEN BEATRICE 1005 2:18:43 8,65 6:56 5 Ainées 1
122 POLIS LUCIENNE 1107 2:18:45 8,65 6:56 6 Ainées 2
123 FETTWEIS THIERRY 1080 2:20:12 8,56 7:00 13 Vétérans 2
124 BASTIN ISABELLE 1082 2:21:09 8,50 7:03 7 Ainées 2
125 PHILIPPE AUDREY 1055 2:21:17 8,49 7:03 6 Ainées 1
126 LEHANSE BERNARD 1112 2:21:20 8,49 7:04 55 Séniors
127 ABAD LAMAS PATRICIA 1097 2:21:28 8,48 7:04 8 Ainées 2
128 SIMON GIL 1140 2:21:55 8,45 7:05 38 Vétérans 1
129 BURLEON QUENTIN 1117 2:23:11 8,38 7:09 56 Séniors
130 LARMINIER MICHAEL 1138 2:23:19 8,37 7:09 57 Séniors
131 LONNEUX DAMIEN 1099 2:23:21 8,37 7:10 58 Séniors
132 FETTWEIS BAUDOUIN 1123 2:24:00 8,33 7:12 59 Séniors
133 RADERMAKER GILLES 1122 2:24:03 8,33 7:12 60 Séniors
134 DERICHS PATRICIA 1046 2:25:43 8,23 7:17 9 Ainées 2
135 BELLEFLAMME PASCALE 1035 2:26:10 8,21 7:18 10 Ainées 2
136 DEPREZ HERVE 1014 2:26:30 8,19 7:19 14 Vétérans 2
137 DENOISIEUX CHRISTIAN 1024 2:27:02 8,16 7:21 39 Vétérans 1
138 MEYS BERNARD 1023 2:27:37 8,13 7:22 40 Vétérans 1
139 EYEN CLAIRE 1128 2:29:31 8,03 7:28 11 Ainées 2
140 DALL OCA BENJAMIN 1137 2:31:45 7,91 7:35 61 Séniors
141 LEUSCH MARGAUX 1103 2:42:05 7,40 8:06 6 Dames
142 OUTMANNS JEREMY 1102 2:42:08 7,40 8:06 62 Séniors